Terminal Aerodrome Forecast
Issued by NWS Nashville, TN

Home | Current Version | Previous Version | Text Only | Print | Product List | Glossary On
Versions: 1 2 3 4 5 6 7 8 9 10 11 12 13 14 15 16 17 18 19 20 21 22 23 24
000
FTUS44 KOHX 291736
TAFCSV
TAF
KCSV 291736Z 2918/3018 33004KT P6SM SCT040
     FM292000 34007KT P6SM VCTS SCT050CB BKN250
     FM300300 34002KT P6SM SCT050 BKN150
      TEMPO 3010/3012 5SM BR
     FM301400 01007KT P6SM SCT250=

USA.gov is the U.S. government's official web portal to all federal, state and local government web resources and services.